Location: Eymir
(36.7333°N, 29.7833°E)
Time: 09:14:07
(UTC+00:00)

Cosmos 1833 Rocket - Visible Passes

Search period start: 10 April 2026 00:00
Search period end: 20 April 2026 00:00
Orbit: 833 x 837 km, 71.0° (Epoch: 9 April)

Date Brightness Start Highest point End Pass type
(mag) Time Alt. Az. Time Alt. Az. Time Alt. Az.
10 Apr 4.3 00:59:58 22° NW 00:59:58 22° NW 01:03:01 10° N visible
10 Apr 5.2 23:01:33 15° NE 23:01:33 15° NE 23:02:35 10° NE visible
11 Apr 4.4 00:43:12 22° NNW 00:43:12 22° NNW 00:46:01 10° N visible
11 Apr 5.4 22:44:45 13° NE 22:44:45 13° NE 22:45:22 10° NE visible
12 Apr 4.5 00:26:24 22° NNW 00:26:24 22° NNW 00:29:00 10° N visible
12 Apr 5.5 22:27:55 11° NE 22:27:55 11° NE 22:28:09 10° NE visible
13 Apr 4.6 00:09:34 22° NNW 00:09:34 22° NNW 00:11:59 10° N visible
13 Apr 4.7 23:52:43 21° NNW 23:52:43 21° NNW 23:54:57 10° N visible
14 Apr 4.7 23:35:49 21° N 23:35:49 21° N 23:37:54 10° N visible
15 Apr 4.8 23:18:54 21° N 23:18:54 21° N 23:20:50 10° N visible
16 Apr 4.9 23:01:58 20° N 23:01:58 20° N 23:03:46 10° N visible
17 Apr 5.0 22:45:00 20° N 22:45:00 20° N 22:46:42 10° N visible
18 Apr 5.0 22:28:00 19° N 22:28:00 19° N 22:29:37 10° NNE visible
19 Apr 5.0 22:10:57 19° N 22:10:57 19° N 22:12:32 10° NNE visible
